GW7269 Weather Reports


time (UTC)temp
C
wind
direction
speed
KPH
gust
KPH
rain 1hr
cm
rain 24hr
cm
rain mn
cm
humidity
%
barometer
mb
20260906231555 15 173 8.0 11.3 0.00 0.00 0.00 81 1017.4
20260906231017 15 168 6.4 16.1 0.00 0.00 0.00 81 1017.5
20260906230519 15 221 4.8 16.1 0.00 0.00 0.00 81 1017.4
20260906225515 15 180 6.4 14.5 0.00 0.00 0.00 82 1017.4
20260906225020 14 178 8.0 12.9 0.00 0.00 0.00 82 1017.4
20260906224535 14 190 6.4 14.5 0.00 0.00 0.00 82 1017.5
20260906224019 14 197 6.4 12.9 0.00 0.00 0.00 82 1017.6
20260906223517 15 181 6.4 14.5 0.00 0.00 0.00 81 1017.6
20260906222518 15 172 3.2 12.9 0.00 0.00 0.00 82 1017.5
20260906222018 15 145 4.8 12.9 0.00 0.00 0.00 81 1017.4
20260906221537 15 200 4.8 14.5 0.00 0.00 0.00 82 1017.6
20260906221018 15 178 6.4 16.1 0.00 0.00 0.00 82 1017.6
20260906220518 15 206 6.4 16.1 0.00 0.00 0.00 82 1017.7
20260906215519 15 186 6.4 12.9 0.00 0.00 0.00 82 1017.5
20260906215017 15 211 4.8 11.3 0.00 0.00 0.00 83 1017.6
20260906214534 14 249 3.2 12.9 0.00 0.00 0.00 84 1017.5
20260906214018 14 251 6.4 12.9 0.00 0.00 0.00 83 1017.6
20260906213519 14 223 4.8 11.3 0.00 0.00 0.00 84 1017.6
20260906213036 13 197 4.8 12.9 0.00 0.00 0.00 85 1017.6
20260906212515 13 211 6.4 12.9 0.00 0.00 0.00 85 1017.6
20260906212018 13 223 1.6 12.9 0.00 0.00 0.00 87 1017.6
20260906211542 13 202 8.0 12.9 0.00 0.00 0.00 86 1017.7
20260906211019 13 209 4.8 11.3 0.00 0.00 0.00 87 1017.3
20260906210520 13 215 3.2 12.9 0.00 0.00 0.00 88 1017.5
20260906210044 13 254 4.8 11.3 0.00 0.00 0.00 88 1017.6
20260906205517 13 248 3.2 8.0 0.00 0.00 0.00 88 1017.6
20260906205017 13 269 3.2 11.3 0.00 0.00 0.00 88 1017.7
20260906204538 13 223 6.4 12.9 0.00 0.00 0.00 87 1017.5
20260906204018 13 265 4.8 12.9 0.00 0.00 0.00 87 1017.6
20260906203518 13 257 6.4 11.3 0.00 0.00 0.00 86 1017.6
20260906202519 14 263 3.2 9.7 0.00 0.00 0.00 86 1017.6
20260906202018 13 201 3.2 9.7 0.00 0.00 0.00 85 1017.5
20260906201021 13 205 1.6 8.0 0.00 0.00 0.00 87 1017.5
20260906200520 13 222 1.6 9.7 0.00 0.00 0.00 87 1017.6
20260906200036 13 211 3.2 9.7 0.00 0.00 0.00 87 1017.7
20260906195515 13 188 4.8 9.7 0.00 0.00 0.00 86 1017.8
20260906195016 13 243 3.2 8.0 0.00 0.00 0.00 87 1017.8
20260906194545 13 178 3.2 8.0 0.00 0.00 0.00 86 1017.8
20260906193518 13 201 4.8 9.7 0.00 0.00 0.00 86 1017.9
20260906193038 13 161 4.8 9.7 0.00 0.00 0.00 85 1018.0
20260906192519 13 163 6.4 9.7 0.00 0.00 0.00 85 1018.0
20260906192019 13 164 3.2 12.9 0.00 0.00 0.00 87 1017.8
20260906191550 13 171 4.8 12.9 0.00 0.00 0.00 86 1017.9
20260906191020 13 159 3.2 8.0 0.00 0.00 0.00 87 1017.9
20260906190518 13 178 4.8 8.0 0.00 0.00 0.00 87 1018.0
20260906190039 13 213 1.6 6.4 0.00 0.00 0.00 88 1018.0
20260906185517 13 178 3.2 11.3 0.00 0.00 0.00 88 1018.2
20260906185019 13 152 6.4 11.3 0.00 0.00 0.00 88 1018.1
20260906183517 13 109 4.8 9.7 0.00 0.00 0.00 89 1018.0
20260906183046 13 133 3.2 11.3 0.00 0.00 0.00 90 1018.0
20260906182520 12 135 3.2 11.3 0.00 0.00 0.00 90 1018.1
20260906182020 12 146 4.8 11.3 0.00 0.00 0.00 89 1018.1
20260906181543 12 117 3.2 11.3 0.00 0.00 0.00 90 1018.1
20260906181021 12 125 4.8 11.3 0.00 0.00 0.00 89 1018.1
20260906180519 12 142 4.8 8.0 0.00 0.00 0.00 89 1018.2
20260906180053 13 142 3.2 6.4 0.00 0.00 0.00 90 1018.3
20260906175517 12 93 0.0 6.4 0.00 0.00 0.00 92 1018.4
20260906175017 12 93 1.6 6.4 0.00 0.00 0.00 91 1018.4
20260906174546 12 101 3.2 9.7 0.00 0.00 0.00 90 1018.4
20260906174017 12 92 4.8 9.7 0.00 0.00 0.00 91 1018.4
20260906173517 12 105 3.2 6.4 0.00 0.00 0.00 92 1018.4
20260906173045 12 86 3.2 6.4 0.00 0.00 0.00 91 1018.3
20260906172019 12 140 0.0 4.8 0.00 0.00 0.00 92 1018.4
20260906171543 12 188 1.6 4.8 0.00 0.00 0.00 91 1018.4
20260906171018 12 216 0.0 3.2 0.00 0.00 0.00 93 1018.2
20260906170519 12 205 0.0 0.0 0.00 0.00 0.00 93 1018.2
20260906170043 12 205 0.0 4.8 0.00 0.00 0.00 93 1018.3
20260906165520 11 179 1.6 4.8 0.00 0.00 0.00 93 1018.2
20260906165017 11 184 1.6 4.8 0.00 0.00 0.00 93 1018.2
20260906164549 11 165 0.0 4.8 0.00 0.00 0.00 94 1018.3
20260906164018 11 147 1.6 6.4 0.00 0.00 0.00 93 1018.3
20260906163103 11 186 3.2 6.4 0.00 0.00 0.00 94 1018.4
20260906162018 11 196 3.2 9.7 0.00 0.00 0.00 94 1018.3
20260906161542 11 183 3.2 9.7 0.00 0.00 0.00 94 1018.3
20260906161020 11 198 3.2 8.0 0.00 0.00 0.00 94 1018.2
20260906160517 11 189 3.2 8.0 0.00 0.00 0.00 95 1018.1
20260906160046 11 175 3.2 9.7 0.00 0.00 0.00 95 1018.1
20260906155516 11 167 4.8 11.3 0.00 0.00 0.00 94 1018.1
20260906154543 11 200 4.8 11.3 0.00 0.00 0.00 95 1018.1
20260906153522 11 175 6.4 16.1 0.00 0.00 0.00 95 1018.1
20260906153047 11 161 3.2 12.9 0.00 0.00 0.00 95 1018.1
20260906152523 11 144 6.4 14.5 0.00 0.00 0.00 95 1017.9
20260906152017 11 130 4.8 11.3 0.00 0.00 0.00 95 1017.9
20260906151539 11 198 4.8 9.7 0.00 0.00 0.00 95 1017.9
20260906151017 11 180 3.2 6.4 0.00 0.00 0.00 95 1017.9
20260906150518 11 125 0.0 6.4 0.00 0.00 0.00 95 1018.0
20260906150046 11 174 1.6 8.0 0.00 0.00 0.00 95 1017.9
20260906145519 11 169 3.2 6.4 0.00 0.00 0.00 95 1017.9
20260906145018 11 173 1.6 6.4 0.00 0.00 0.00 95 1017.9
20260906144545 11 165 1.6 8.0 0.00 0.00 0.00 95 1017.9
20260906143047 11 197 3.2 16.1 0.00 0.00 0.00 95 1017.8
20260906142517 11 150 6.4 17.7 0.00 0.00 0.00 95 1017.7
20260906142021 11 167 6.4 16.1 0.00 0.00 0.00 95 1017.6
20260906141542 11 118 11.3 19.3 0.00 0.00 0.00 95 1017.6
20260906141023 11 147 9.7 19.3 0.00 0.00 0.00 95 1017.7
20260906140524 11 123 8.0 14.5 0.00 0.00 0.00 95 1017.8
20260906140056 11 107 6.4 16.1 0.00 0.00 0.00 95 1017.7
20260906135518 11 148 6.4 12.9 0.00 0.00 0.00 95 1017.6
20260906135017 11 115 4.8 12.9 0.00 0.00 0.00 95 1017.7
20260906134543 11 123 4.8 16.1 0.00 0.00 0.00 95 1017.8
20260906134019 11 163 8.0 14.5 0.00 0.00 0.00 95 1017.7
20260906133043 11 93 8.0 20.9 0.00 0.00 0.00 95 1017.6
20260906132518 11 101 4.8 22.5 0.00 0.00 0.00 94 1017.6
20260906132020 11 98 9.7 22.5 0.00 0.00 0.00 94 1017.5
20260906131552 11 84 12.9 19.3 0.00 0.00 0.00 95 1017.7
20260906131020 11 111 8.0 19.3 0.00 0.00 0.00 95 1017.7
20260906130518 11 113 6.4 17.7 0.00 0.00 0.00 95 1017.7
20260906130100 11 123 6.4 17.7 0.00 0.00 0.00 95 1017.6
20260906125520 11 114 11.3 17.7 0.00 0.00 0.00 95 1017.7
20260906125019 11 80 6.4 16.1 0.00 0.00 0.00 95 1017.7
20260906124547 11 92 9.7 16.1 0.00 0.00 0.00 95 1017.7
20260906124017 11 70 9.7 16.1 0.00 0.00 0.00 95 1017.7
20260906123518 11 63 6.4 20.9 0.00 0.00 0.00 95 1017.7
20260906123048 11 133 9.7 20.9 0.00 0.00 0.00 95 1017.7
20260906122019 10 113 9.7 20.9 0.00 0.00 0.00 95 1017.6
20260906121542 11 99 11.3 19.3 0.00 0.00 0.00 95 1017.5
20260906120518 10 136 8.0 17.7 0.00 0.00 0.00 95 1017.3
20260906120049 11 107 11.3 20.9 0.00 0.00 0.00 95 1017.2
20260906115520 10 101 11.3 22.5 0.00 0.00 0.00 95 1017.3
20260906115019 10 88 11.3 22.5 0.00 0.00 0.00 95 1017.2
20260906114543 10 82 16.1 22.5 0.00 0.00 0.00 95 1017.2
20260906113052 10 86 12.9 24.1 0.00 0.00 0.00 95 1017.2
20260906112019 11 113 11.3 19.3 0.00 0.00 0.00 95 1017.3
20260906111541 11 115 11.3 20.9 0.00 0.00 0.00 95 1017.3
20260906111019 11 153 12.9 20.9 0.00 0.00 0.00 95 1017.1
20260906110517 11 143 8.0 19.3 0.00 0.00 0.00 95 1017.2
20260906110045 11 76 9.7 19.3 0.00 0.00 0.00 95 1017.2
20260906105516 11 117 8.0 22.5 0.00 0.00 0.00 95 1017.2
20260906104545 11 123 11.3 24.1 0.00 0.00 0.00 95 1017.0
20260906104018 11 101 12.9 20.9 0.00 0.00 0.00 95 1017.0
20260906103044 11 88 11.3 22.5 0.00 0.00 0.00 95 1017.1
20260906102520 11 126 14.5 24.1 0.00 0.00 0.00 95 1017.0
20260906101556 11 165 11.3 20.9 0.00 0.00 0.00 95 1017.1
20260906101019 11 143 8.0 20.9 0.00 0.00 0.00 95 1017.2
20260906100523 11 140 9.7 19.3 0.00 0.00 0.00 94 1017.1
20260906100106 11 141 9.7 19.3 0.00 0.00 0.00 94 1017.0
20260906095018 11 143 11.3 22.5 0.00 0.00 0.00 94 1017.0
20260906094545 11 128 16.1 22.5 0.00 0.00 0.00 94 1017.0
20260906093057 11 176 12.9 22.5 0.00 0.00 0.00 94 1016.7
20260906092523 11 160 12.9 24.1 0.00 0.00 0.00 94 1016.5
20260906092019 11 137 14.5 24.1 0.00 0.00 0.00 94 1016.6
20260906091545 11 132 12.9 25.7 0.00 0.00 0.00 93 1016.5
20260906090101 12 137 9.7 17.7 0.00 0.00 0.00 93 1016.6
20260906085020 12 173 8.0 14.5 0.00 0.00 0.00 92 1016.7
20260906084556 12 136 8.0 16.1 0.00 0.00 0.00 91 1016.6
20260906084019 12 144 9.7 17.7 0.00 0.00 0.00 91 1016.6
20260906083519 12 146 9.7 12.9 0.00 0.00 0.00 91 1016.5
20260906083049 12 115 6.4 12.9 0.00 0.00 0.00 91 1016.6
20260906082019 12 125 6.4 12.9 0.00 0.00 0.00 90 1016.5
20260906081555 12 108 8.0 11.3 0.00 0.00 0.00 90 1016.5
20260906081018 12 100 6.4 12.9 0.00 0.00 0.00 89 1016.5
20260906080058 12 107 8.0 11.3 0.00 0.00 0.00 89 1016.5
20260906075520 12 99 6.4 11.3 0.00 0.00 0.00 89 1016.3
20260906075019 12 112 6.4 11.3 0.00 0.00 0.00 89 1016.3
20260906074559 12 117 4.8 14.5 0.00 0.00 0.00 89 1016.3
20260906074019 12 126 6.4 14.5 0.00 0.00 0.00 90 1016.3
20260906073520 12 125 6.4 12.9 0.00 0.00 0.00 90 1016.2
20260906073103 12 125 6.4 12.9 0.00 0.00 0.00 90 1016.3
20260906071555 13 119 8.0 12.9 0.00 0.00 0.00 90 1016.2
20260906070522 13 121 6.4 11.3 0.00 0.00 0.00 91 1016.3
20260906064556 13 145 8.0 11.3 0.00 0.00 0.00 88 1016.1
20260906064019 13 143 6.4 12.9 0.00 0.00 0.00 88 1016.2
20260906063046 13 132 6.4 11.3 0.00 0.00 0.00 86 1016.3
20260906061552 13 147 4.8 9.7 0.00 0.00 0.00 85 1016.3
20260906060521 13 152 4.8 9.7 0.00 0.00 0.00 85 1016.2
20260906060059 13 142 4.8 8.0 0.00 0.00 0.00 85 1016.1
20260906055519 13 132 4.8 6.4 0.00 0.00 0.00 85 1016.1
20260906055016 13 128 4.8 6.4 0.00 0.00 0.00 85 1016.1
20260906054602 13 129 4.8 6.4 0.00 0.00 0.00 85 1016.1
20260906053059 13 104 4.8 6.4 0.00 0.00 0.00 86 1016.2
20260906051555 14 119 4.8 6.4 0.00 0.00 0.00 84 1015.7
20260906050126 14 140 4.8 6.4 0.00 0.00 0.00 85 1015.9
20260906045023 15 125 4.8 6.4 0.00 0.00 0.00 78 1015.7
20260906044604 16 120 0.0 0.0 0.00 0.00 0.00 74 1015.7
20260906043118 17 234 0.0 0.0 0.00 0.00 0.00 60 1015.6
20260906041604 16 248 0.0 0.0 0.00 0.00 0.00 63 1015.8
20260906040523 16 207 0.0 0.0 0.00 0.00 0.00 62 1016.0
20260906034620 16 207 0.0 3.2 0.00 0.00 0.00 62 1015.8
20260906033106 16 207 1.6 3.2 0.00 0.00 0.00 66 1015.8
20260906031601 16 207 4.8 8.0 0.00 0.00 0.00 69 1016.0
20260906030120 16 195 3.2 9.7 0.00 0.00 0.00 71 1016.1
20260906025523 16 163 4.8 9.7 0.00 0.00 0.00 71 1015.9
20260906025018 16 170 4.8 9.7 0.00 0.00 0.00 72 1015.9
20260906024617 16 167 0.0 4.8 0.00 0.00 0.00 72 1015.9
20260906023520 17 193 3.2 6.4 0.00 0.00 0.00 70 1015.9
20260906023059 17 194 3.2 6.4 0.00 0.00 0.00 68 1016.2
20260906021610 17 209 3.2 6.4 0.00 0.00 0.00 67 1016.0
20260906020126 18 217 3.2 8.0 0.00 0.00 0.00 65 1016.0
20260906014608 19 235 0.0 4.8 0.00 0.00 0.00 62 1016.3
20260906014018 19 197 1.6 4.8 0.00 0.00 0.00 62 1016.1
20260906013519 19 227 0.0 4.8 0.00 0.00 0.00 61 1016.0
20260906013118 19 257 0.0 6.4 0.00 0.00 0.00 62 1016.3
20260906012523 18 215 0.0 9.7 0.00 0.00 0.00 64 1016.1
20260906012026 18 239 3.2 8.0 0.00 0.00 0.00 64 1016.1
20260906011623 18 223 3.2 6.4 0.00 0.00 0.00 64 1015.7
20260906010111 18 209 1.6 6.4 0.00 0.00 0.00 64 1016.1
20260906004601 18 207 1.6 12.9 0.00 0.00 0.00 66 1016.0
20260906003108 17 176 4.8 11.3 0.00 0.00 0.00 64 1016.1
20260906002020 17 278 4.8 11.3 0.00 0.00 0.00 67 1016.1
20260906001622 17 229 6.4 12.9 0.00 0.00 0.00 67 1015.9
20260906001018 17 241 6.4 12.9 0.00 0.00 0.00 67 1016.1
20260906000523 17 231 6.4 12.9 0.00 0.00 0.00 67 1016.2
20260906000059 17 196 6.4 14.5 0.00 0.00 0.00 71 1016.2
20260905235519 17 223 6.4 12.9 0.00 0.00 0.00 69 1016.3
20260905235019 17 228 9.7 12.9 0.00 0.00 0.00 67 1016.4
20260905234603 17 248 6.4 14.5 0.00 0.00 0.00 68 1016.3
20260905233130 17 243 8.0 14.5 0.00 0.00 0.00 66 1016.6
20260905232517 17 246 3.2 12.9 0.00 0.00 0.00 68 1016.4